sat.trackr.live / text

‹ back to catalog

STARLINK-6310

NORAD 56533 · 2023-065AG

PAYLOAD ACTIVE UNKNOWN

§ Identity

Operator
Country
US
Launch date
2023-05-14
Launch site
AFETR
Launch vehicle
Mass (kg)
RCS (m²)

Purposes: comms

External: N2YO · Heavens-Above · Gunter

§ Orbital elements

Epoch: 2026-09-20T03:09:12.006144Z

Period
94.27 min
Inclination
43.0002°
Eccentricity
0.0001090
Mean motion
15.27579701 rev/d
Perigee alt
482.3 km
Apogee alt
483.8 km
Semi-major
6,861.2 km
B*
-3.0142e-5
RAAN
179.9451°
Arg perigee
205.0011°
Mean anomaly
155.0788°
Rev number
18,650

§ Raw data

STARLINK-63101 56533U 23065AG  26263.13138896 -.00001091  00000+0 -30142-4 0  99922 56533  43.0002 179.9451 0001090 205.0011 155.0788 15.27579701186506

JSON: /api/v1/satellites/56533 · /tle

For live sub-satellite position, see the globe view (requires WebGL).

§ Visibility from observer

Set your observer location to see the next 7 days of passes ≥ 10°. The values pass through the URL so the page stays shareable.

No JS? Fill the form by hand. The geolocation button needs JavaScript.